UKKKUKLI

Guest
Details From UKKK - Zhuliany Intl
To UKLI - Ivano Frankivsk Intl
Flight Number -
Tags Generated
Created
Modified
Stats Distance 242 nm / 448 km
Max Altitude 0 ft / 0 m
Waypoints 3
Social Downloads 0
Likes 0
Share VATSIM

Download

Looking for another format? Having issues loading an existing format? Contact us
Advertisement - Login to hide

Notes

Generated

Route

UKKK IVF UKLI

ID Type Via Altitude Latitude Longitude Leg Dist Tot Dist Heading (true) Name
O UKKK APT - 0 ft / 0 m 50.40113˚ 30.43699˚ - 0 nm - -
IVF VOR - 0 ft / 0 m 48.88466˚ 24.68990˚ 241 nm 241 nm 250° / 246° IVANO FRANKIVSK VOR-DME
O UKLI APT - 0 ft / 0 m 48.88667˚ 24.67000˚ 0 nm 242 nm 279° / 279° -

Altitude Profile

Advertisement - Login to hide

Weather


0- 5 10 15 20 25 30 35+ Temperature / ° C

Clouds and Precipitation
Forecast for 2018-05-22 12:00 UTC. Updated an hour ago

Ground ~20,000 ft ~40,000 ft Winds

UKKK

Details ICAO UKKK (IEV)
Name ZHULIANY INTL
Region Ukraine
Timezone Europe/Kiev (UTC+3.0)
Stats Elevation 586 ft / 179 m (AMSL)
Location 50.401694° 30.449697°
Runways 1
Magnetic Variation 7.648° E

METAR

UKKK 221000Z 16002MPS 060V220 9999 SCT044 19/08 Q1023 R26/70D NOSIG

Decode

TAF

TAF TAF UKKK 212303Z 2200/2224 02003MPS 6000 BKN010 TEMPO 2200/2206 0400 FG VV001 BECMG 2206/2208 19003G08MPS BKN025

Decode

Departure Runways

ID Width Length Bearing (true) Bearing (mag) Surface Threshold Offset Overrun Length
08 161 ft / 49 m 5,926 ft / 1,806 m 86.02° 78.37° Concrete 0 ft / 0 m 0 ft / 0 m
26 161 ft / 49 m 5,926 ft / 1,806 m 266.04° 258.39° Concrete 0 ft / 0 m 1,132 ft / 345 m

UKLI

Details ICAO UKLI (IFO)
Name IVANO FRANKIVSK INTL
Region Ukraine
Timezone Europe/Kiev (UTC+3.0)
Stats Elevation 919 ft / 280 m (AMSL)
Location 48.884167° 24.686667°
Runways 1
Magnetic Variation 6.135° E

METAR

UKLI 221000Z 12003MPS 070V160 CAVOK 21/14 Q1019 R10/090070 NOSIG

Decode

TAF

Not found

Destination Runways

ID Width Length Bearing (true) Bearing (mag) Surface Threshold Offset Overrun Length
10 144 ft / 44 m 8,204 ft / 2,501 m 102.84° 96.70° Concrete 0 ft / 0 m 0 ft / 0 m
28 144 ft / 44 m 8,204 ft / 2,501 m 282.86° 276.72° Concrete 0 ft / 0 m 0 ft / 0 m

Approach Navaids

Runway Type Ident Frequency Range Bearing (true) Bearing (mag) Slope Elevation
10 Localiser IIV 108.70 MHz 18 nm / 33 km 103.85° 97.72° - 919 ft / 280 m (AMSL)
10 Glidescope IIV 108.70 MHz 10 nm / 19 km 102.85° 96.71° 3.00° 919 ft / 280 m (AMSL)
28 Localiser IIF 109.30 MHz 18 nm / 33 km 283.06° 276.93° - 919 ft / 280 m (AMSL)
28 Glidescope IIF 109.30 MHz 10 nm / 19 km 282.85° 276.71° 3.00° 919 ft / 280 m (AMSL)

Popular Alternatives